Regional Weather Roundup
Issued by NWS Newport/Morehead, NC

Current Version | Previous Version | Text Only | Print | Product List | Glossary On
Versions: 1 2 3 4 5 6 7 8 9 10 11 12 13 14 15 16 17 18 19 20 21 22 23 24 25 26 27 28 29 30 31 32 33 34 35 36 37 38 39 40 41 42 43 44 45 46 47 48 49 50
448 ASUS42 KMHX 071113 RWRMHX WEATHER ROUNDUP FOR EASTERN NORTH CAROLINA NATIONAL WEATHER SERVICE NEWPORT/MOREHEAD CITY NC 600 AM EST SUN FEB 07 2016 NOTE: "FAIR" INDICATES FEW OR NO CLOUDS BELOW 12,000 FEET WITH NO SIGNIFICANT WEATHER AND/OR OBSTRUCTIONS TO VISIBILITY NCZ015>017-031-032-045>047-102-103-071200- NORTH COAST CITY SKY/WX TMP DP RH WIND PRES REMARKS EDENTON CLOUDY 39 30 69 NE9 30.13F ELIZABETH CITY CLOUDY 40 30 67 N10 30.13F KITTY HAWK CLOUDY 43 33 66 NE12G17 30.10R MANTEO CLOUDY 43 34 71 NE16G22 30.11S $$ NCZ045>047-081-094-103-104-071200- CENTRAL COAST CITY SKY/WX TMP DP RH WIND PRES REMARKS FRISCO LGT RAIN 44 39 82 NE15G30 30.05R SWANQUARTER N/A 39 N/A N/A NE9G20 30.03F $$ NCZ095-097-098-100-101-071200- SOUTHERN COAST CITY SKY/WX TMP DP RH WIND PRES REMARKS BEAUFORT RAIN 37 30 75 N20G29 30.01F CEDAR ISLAND N/A 43 N/A N/A N29G39 30.06F JACKSONVILLE RAIN 37 31 78 N20 30.02F PINEY ISLAND LGT RAIN N/A N/A N/A N24 30.00F WILMINGTON LGT RAIN 38 34 85 N21G29 29.97F $$ NCZ011>013-027>030-043-044-078>080-089-090>093-098-071200- COASTAL PLAIN CITY SKY/WX TMP DP RH WIND PRES REMARKS AHOSKIE LGT RAIN 36 27 69 NE7 30.12F CLINTON RAIN 36 35 96 N12 30.09S ELIZABETHTOWN RAIN 35 34 95 N7 30.05F GOLDSBORO CLOUDY 37 37 100 N7 30.08F GREENVILLE DRIZZLE 36 32 87 NE7 30.11F HAVELOCK LGT RAIN 38 30 73 N22 30.02F KENANSVILLE RAIN 36 33 89 N12 30.09S KINSTON NOT AVBL NEW BERN LGT RAIN 37 30 75 N15G25 30.05F RICHLANDS CLOUDY 36 28 75 N13G21 30.04S ROCKY MOUNT LGT RAIN 36 32 85 N9 30.11F WASHINGTON LGT RAIN 35 30 82 NE3 30.08F WHITEVILLE RAIN 36 34 93 N12 30.01F $$ AMZ130-135-150-152-154-156-158-170-250-252-270-ANZ085-086-088-633-658-670-071200- MARINE OBSERVATIONS STATION/POSITION TIME TEMP WIND PRES WAVE SWELL AIR SEA DIR/SP/G HT/PER HT/PER (UTC) (F) (DEG/KT/KT) (MB) (FT/S) (FT/S) CHESAPEAKE LIGHT 1100 42 40/ 20/ 21 1021.4 64 E VA BEACH 1050 48 54 30/ 21/ 25 1018.6 5/10 3/10 DUCK 1000 43 45 20/ 22/ 24 1019.3 2 E DUCK 1011 44 N/A 4/10 2/11 OREGON INLET 1000 44 46 10/ 15/ 22 1018.8 13E OREGON INLT 1100 47 N/A 7/10 2/11 HATTERAS CG 1000 45 48 10/ 30/ 35 1016.4 DIAMOND BUOY 1050 53 71 20/ 31/ 39 1015.0 9/ 7 3/11 CAPE LOOKOUT NOT AVBL BEAUFORT LAB 1000 39 48 10/ 20/ 27 1015.8 30 SE NEW RVR IN 1008 39 65 1011.9 30 SE NEW RVR IN 1025 65 N/A 10/ 7 2/11 27 SE WRIGHTSVLE 1008 46 67 360/ 31/ 43 1013.7 5 SE WRIGHTSVLE 1008 42 53 30/ 27/ 35 1014.8 225 S CAPE HAT 1050 65 69 100/ 25/ 29 N/A 8/11 5/11 41 SE CHARLESTON 1050 51 65 10/ 33/ 41 1009.5 12/ 8 2/17 $$

USA.gov is the U.S. government's official web portal to all federal, state and local government web resources and services.